English version Home page |
Updated on May 5, 2012 |
|
軌道要素Epoch 2009 Oct. 16.0 TT = JDT 2455120.5 T 2009 Oct. 12.46388 TT MPC q 1.3634944 (2000.0) P Q n 0.17945018 Peri. 235.95899 +0.38414952 +0.92105688 a 3.1129593 Node 56.75774 -0.81990680 +0.37214479 e 0.5619941 Incl. 4.38190 -0.42447849 +0.11472788 P 5.49 From 1388 observations 1997 Dec. 31-2011 Feb. 6, mean residual 0".9. Nongravitational parameters A1 = +0.59, A2 = -0.0495.
|
星図
|
光度変化m1 = 3.5 + 5 logΔ + 30 log r(t - 15) [ ,220] ( 〜2010年 5月20日) m1 = 11.0 + 5 logΔ + 10.0 log r [220, ] (2010年 5月20日〜 )
|
軌道要素はM.P.E.C. 2012-J16に掲載されたものです。
|